MTN7303 KBWI-KEWR

Flight info

Callsign MTN7303
Flight time 0h 55m
Altitude 7000
Route BELAY HAPPS T447 HOSKR ARD METRO
Aircraft C208/L-SDFGR/C

Departure

Time 2026-04-20 19:48
Airport Baltimore/Washington International Thurgood Marshall Airport (KBWI)

Arrival

Time 2026-04-20 20:44
Airport Newark Liberty International Airport (KEWR)
Time Latitude Longitude Altitude Speed Heading
2026-04-20 19:29 39.18647 -76.66963 169 ft 0 kts 53°
2026-04-20 19:41 39.18648 -76.66961 169 ft 1 kts 73°
2026-04-20 19:41 39.18632 -76.66986 168 ft 10 kts 247°
2026-04-20 19:41 39.18605 -76.67022 167 ft 0 kts 187°
2026-04-20 19:42 39.18576 -76.67012 167 ft 10 kts 145°
2026-04-20 19:42 39.18515 -76.66955 168 ft 10 kts 144°
2026-04-20 19:42 39.18458 -76.66902 168 ft 11 kts 144°
2026-04-20 19:42 39.18407 -76.66836 166 ft 10 kts 96°
2026-04-20 19:43 39.18436 -76.66747 165 ft 8 kts 54°
2026-04-20 19:43 39.18466 -76.66695 163 ft 8 kts 55°
2026-04-20 19:43 39.18509 -76.66609 159 ft 11 kts 54°
2026-04-20 19:43 39.18546 -76.66544 155 ft 7 kts 53°
2026-04-20 19:44 39.18577 -76.66441 148 ft 16 kts 108°
2026-04-20 19:44 39.18479 -76.66339 147 ft 23 kts 146°
2026-04-20 19:44 39.18340 -76.66199 144 ft 22 kts 146°
2026-04-20 19:44 39.18226 -76.66094 143 ft 24 kts 144°
2026-04-20 19:45 39.18068 -76.65945 141 ft 31 kts 142°
2026-04-20 19:45 39.17934 -76.65809 134 ft 19 kts 143°
2026-04-20 19:45 39.17831 -76.65703 129 ft 22 kts 142°
2026-04-20 19:45 39.17706 -76.65581 128 ft 17 kts 142°
2026-04-20 19:46 39.17636 -76.65514 129 ft 10 kts 141°
2026-04-20 19:46 39.17581 -76.65427 128 ft 11 kts 74°
2026-04-20 19:46 39.17584 -76.65416 129 ft 0 kts 70°
2026-04-20 19:47 39.17602 -76.65378 126 ft 13 kts 52°
2026-04-20 19:47 39.17639 -76.65337 124 ft 0 kts 322°
2026-04-20 19:47 39.17695 -76.65390 123 ft 35 kts 325°
2026-04-20 19:48 39.18033 -76.65700 151 ft 78 kts 328°
2026-04-20 19:48 39.18512 -76.66109 365 ft 83 kts 325°
2026-04-20 19:48 39.19077 -76.66424 589 ft 94 kts 356°
2026-04-20 19:48 39.19771 -76.66186 815 ft 104 kts 18°
2026-04-20 19:49 39.20454 -76.65891 1133 ft 104 kts 17°
2026-04-20 19:49 39.21143 -76.65573 1416 ft 105 kts 18°
2026-04-20 19:49 39.21834 -76.65253 1718 ft 106 kts 18°
2026-04-20 19:49 39.22528 -76.64928 2037 ft 107 kts 18°
2026-04-20 19:50 39.23225 -76.64601 2318 ft 107 kts 17°
2026-04-20 19:50 39.23892 -76.64210 2591 ft 109 kts 43°
2026-04-20 19:50 39.24361 -76.63450 2902 ft 108 kts 43°
2026-04-20 19:50 39.24877 -76.62738 3202 ft 109 kts 49°
2026-04-20 19:51 39.25367 -76.61988 3518 ft 110 kts 48°
2026-04-20 19:51 39.25863 -76.61238 3788 ft 110 kts 48°
2026-04-20 19:51 39.26358 -76.60481 4078 ft 111 kts 48°
2026-04-20 19:51 39.26856 -76.59725 4347 ft 111 kts 48°
2026-04-20 19:52 39.27359 -76.58961 4653 ft 111 kts 48°
2026-04-20 19:52 39.27885 -76.58165 4743 ft 128 kts 49°
2026-04-20 19:52 39.28508 -76.57223 4750 ft 147 kts 49°
2026-04-20 19:52 39.29199 -76.56183 4751 ft 158 kts 49°
2026-04-20 19:53 39.29936 -76.55094 4747 ft 163 kts 45°
2026-04-20 19:53 39.30856 -76.54221 4749 ft 166 kts 30°
2026-04-20 19:53 39.31845 -76.53436 4746 ft 168 kts 32°
2026-04-20 19:53 39.32827 -76.52599 4745 ft 169 kts 33°
2026-04-20 19:54 39.33803 -76.51753 4747 ft 169 kts 33°
2026-04-20 19:54 39.34778 -76.50909 4746 ft 169 kts 33°
2026-04-20 19:54 39.35744 -76.50077 4745 ft 169 kts 33°
2026-04-20 19:54 39.36723 -76.49227 4740 ft 171 kts 33°
2026-04-20 19:55 39.37707 -76.48376 4741 ft 170 kts 33°
2026-04-20 19:55 39.38687 -76.47530 4740 ft 169 kts 33°
2026-04-20 19:55 39.39666 -76.46683 4739 ft 169 kts 33°
2026-04-20 19:55 39.40642 -76.45837 4739 ft 169 kts 33°
2026-04-20 19:56 39.41287 -76.45275 4739 ft 169 kts 33°
2026-04-20 19:56 39.42599 -76.44139 4739 ft 170 kts 33°
2026-04-20 19:56 39.43579 -76.43293 4739 ft 170 kts 33°
2026-04-20 19:56 39.44559 -76.42442 4739 ft 170 kts 33°
2026-04-20 19:57 39.45535 -76.41583 4740 ft 170 kts 33°
2026-04-20 19:57 39.46505 -76.40746 4739 ft 170 kts 33°
2026-04-20 19:57 39.47485 -76.39895 4739 ft 169 kts 33°
2026-04-20 19:57 39.48464 -76.39047 4738 ft 169 kts 33°
2026-04-20 19:58 39.49442 -76.38196 4738 ft 169 kts 33°
2026-04-20 19:58 39.50420 -76.37344 4738 ft 169 kts 33°
2026-04-20 19:58 39.51397 -76.36495 4737 ft 169 kts 33°
2026-04-20 19:58 39.52375 -76.35643 4740 ft 170 kts 33°
2026-04-20 19:59 39.53361 -76.34785 4741 ft 171 kts 33°
2026-04-20 19:59 39.54350 -76.33925 4739 ft 171 kts 33°
2026-04-20 19:59 39.55335 -76.33067 4740 ft 171 kts 33°
2026-04-20 19:59 39.56304 -76.32222 4738 ft 170 kts 33°
2026-04-20 20:00 39.57288 -76.31366 4739 ft 170 kts 33°
2026-04-20 20:00 39.58272 -76.30510 4738 ft 170 kts 33°
2026-04-20 20:00 39.59148 -76.29487 4729 ft 171 kts 52°
2026-04-20 20:00 39.59796 -76.28193 4731 ft 171 kts 57°
2026-04-20 20:01 39.60451 -76.26903 4733 ft 171 kts 55°
2026-04-20 20:01 39.61128 -76.25631 4735 ft 172 kts 54°
2026-04-20 20:01 39.61804 -76.24351 4732 ft 172 kts 55°
2026-04-20 20:01 39.62478 -76.23073 4732 ft 172 kts 54°
2026-04-20 20:02 39.63146 -76.21813 4733 ft 172 kts 55°
2026-04-20 20:02 39.63818 -76.20534 4737 ft 172 kts 54°
2026-04-20 20:02 39.64495 -76.19261 4733 ft 171 kts 54°
2026-04-20 20:02 39.65171 -76.17985 4732 ft 171 kts 55°
2026-04-20 20:03 39.65840 -76.16711 4731 ft 170 kts 55°
2026-04-20 20:03 39.66509 -76.15442 4730 ft 170 kts 55°
2026-04-20 20:03 39.67176 -76.14175 4729 ft 170 kts 55°
2026-04-20 20:03 39.67843 -76.12911 4729 ft 170 kts 55°
2026-04-20 20:04 39.68509 -76.11645 4728 ft 170 kts 55°
2026-04-20 20:04 39.69178 -76.10382 4728 ft 170 kts 55°
2026-04-20 20:04 39.69844 -76.09107 4731 ft 171 kts 55°
2026-04-20 20:04 39.70518 -76.07829 4731 ft 172 kts 55°
2026-04-20 20:05 39.71181 -76.06567 4729 ft 171 kts 54°
2026-04-20 20:05 39.71852 -76.05294 4729 ft 171 kts 55°
2026-04-20 20:05 39.72521 -76.04025 4728 ft 170 kts 55°
2026-04-20 20:05 39.73188 -76.02754 4727 ft 170 kts 55°
2026-04-20 20:06 39.73853 -76.01487 4727 ft 170 kts 55°
2026-04-20 20:06 39.74519 -76.00218 4728 ft 170 kts 55°
2026-04-20 20:06 39.75186 -75.98951 4730 ft 171 kts 55°
2026-04-20 20:06 39.75853 -75.97674 4728 ft 171 kts 55°
2026-04-20 20:07 39.76521 -75.96400 4728 ft 171 kts 55°
2026-04-20 20:07 39.77190 -75.95122 4729 ft 171 kts 55°
2026-04-20 20:07 39.77859 -75.93847 4730 ft 171 kts 55°
2026-04-20 20:07 39.78519 -75.92591 4730 ft 171 kts 55°
2026-04-20 20:08 39.79186 -75.91318 4728 ft 170 kts 55°
2026-04-20 20:08 39.79854 -75.90038 4729 ft 171 kts 55°
2026-04-20 20:08 39.80520 -75.88761 4731 ft 171 kts 55°
2026-04-20 20:08 39.81190 -75.87481 4731 ft 171 kts 55°
2026-04-20 20:09 39.81859 -75.86203 4730 ft 171 kts 55°
2026-04-20 20:09 39.82527 -75.84923 4728 ft 171 kts 55°
2026-04-20 20:09 39.83194 -75.83647 4730 ft 170 kts 55°
2026-04-20 20:09 39.83862 -75.82369 4726 ft 170 kts 55°
2026-04-20 20:10 39.84518 -75.81114 4727 ft 170 kts 55°
2026-04-20 20:10 39.85182 -75.79839 4730 ft 170 kts 55°
2026-04-20 20:10 39.85845 -75.78559 4730 ft 170 kts 55°
2026-04-20 20:10 39.86510 -75.77287 4732 ft 170 kts 54°
2026-04-20 20:11 39.87178 -75.76010 4732 ft 171 kts 55°
2026-04-20 20:11 39.87845 -75.74730 4729 ft 170 kts 55°
2026-04-20 20:11 39.88509 -75.73452 4731 ft 171 kts 55°
2026-04-20 20:11 39.89175 -75.72172 4730 ft 171 kts 55°
2026-04-20 20:12 39.89841 -75.70895 4730 ft 170 kts 55°
2026-04-20 20:12 39.90504 -75.69615 4729 ft 171 kts 55°
2026-04-20 20:12 39.91164 -75.68350 4732 ft 171 kts 55°
2026-04-20 20:13 39.92405 -75.65709 4727 ft 171 kts 59°
2026-04-20 20:13 39.93011 -75.64382 4727 ft 171 kts 58°
2026-04-20 20:13 39.93611 -75.63049 4729 ft 170 kts 59°
2026-04-20 20:13 39.94205 -75.61716 4728 ft 170 kts 59°
2026-04-20 20:14 39.94797 -75.60381 4730 ft 170 kts 59°
2026-04-20 20:14 39.95382 -75.59062 4730 ft 171 kts 59°
2026-04-20 20:14 39.95975 -75.57724 4728 ft 171 kts 59°
2026-04-20 20:14 39.96568 -75.56384 4729 ft 170 kts 59°
2026-04-20 20:15 39.97164 -75.55048 4729 ft 171 kts 59°
2026-04-20 20:15 39.97757 -75.53708 4729 ft 170 kts 59°
2026-04-20 20:15 39.98348 -75.52371 4727 ft 170 kts 59°
2026-04-20 20:15 39.98940 -75.51032 4727 ft 170 kts 59°
2026-04-20 20:16 39.99531 -75.49696 4729 ft 171 kts 59°
2026-04-20 20:16 40.00123 -75.48355 4728 ft 170 kts 59°
2026-04-20 20:16 40.00707 -75.47035 4729 ft 170 kts 59°
2026-04-20 20:16 40.01299 -75.45696 4728 ft 170 kts 59°
2026-04-20 20:17 40.01889 -75.44362 4730 ft 170 kts 59°
2026-04-20 20:17 40.02479 -75.43026 4727 ft 170 kts 59°
2026-04-20 20:17 40.03069 -75.41688 4728 ft 170 kts 59°
2026-04-20 20:17 40.03658 -75.40352 4730 ft 170 kts 59°
2026-04-20 20:18 40.04247 -75.39015 4731 ft 170 kts 59°
2026-04-20 20:18 40.04837 -75.37674 4731 ft 171 kts 59°
2026-04-20 20:18 40.05420 -75.36350 4729 ft 170 kts 59°
2026-04-20 20:18 40.06010 -75.35013 4731 ft 170 kts 59°
2026-04-20 20:19 40.06600 -75.33673 4731 ft 170 kts 59°
2026-04-20 20:19 40.07190 -75.32331 4731 ft 170 kts 59°
2026-04-20 20:19 40.07778 -75.30993 4730 ft 170 kts 59°
2026-04-20 20:19 40.08368 -75.29650 4730 ft 171 kts 59°
2026-04-20 20:20 40.08959 -75.28306 4729 ft 170 kts 59°
2026-04-20 20:20 40.09548 -75.26966 4730 ft 170 kts 59°
2026-04-20 20:20 40.10129 -75.25637 4730 ft 170 kts 59°
2026-04-20 20:20 40.10718 -75.24295 4730 ft 170 kts 59°
2026-04-20 20:21 40.11309 -75.22950 4730 ft 171 kts 59°
2026-04-20 20:21 40.11901 -75.21603 4729 ft 171 kts 59°
2026-04-20 20:21 40.12489 -75.20257 4728 ft 171 kts 59°
2026-04-20 20:21 40.13078 -75.18913 4728 ft 170 kts 59°
2026-04-20 20:22 40.13466 -75.18030 4727 ft 170 kts 59°
2026-04-20 20:22 40.14250 -75.16233 4731 ft 171 kts 59°
2026-04-20 20:22 40.14840 -75.14892 4729 ft 170 kts 59°
2026-04-20 20:22 40.15425 -75.13550 4729 ft 170 kts 59°
2026-04-20 20:23 40.16002 -75.12225 4729 ft 170 kts 59°
2026-04-20 20:23 40.16590 -75.10881 4728 ft 170 kts 59°
2026-04-20 20:23 40.17177 -75.09540 4730 ft 170 kts 59°
2026-04-20 20:23 40.17766 -75.08190 4729 ft 171 kts 59°
2026-04-20 20:24 40.18353 -75.06843 4729 ft 171 kts 59°
2026-04-20 20:24 40.18940 -75.05496 4729 ft 171 kts 59°
2026-04-20 20:24 40.19528 -75.04147 4729 ft 171 kts 59°
2026-04-20 20:24 40.20115 -75.02802 4727 ft 170 kts 60°
2026-04-20 20:25 40.20701 -75.01456 4727 ft 170 kts 59°
2026-04-20 20:25 40.21288 -75.00107 4727 ft 170 kts 59°
2026-04-20 20:25 40.21865 -74.98780 4727 ft 170 kts 59°
2026-04-20 20:25 40.22452 -74.97433 4727 ft 171 kts 60°
2026-04-20 20:26 40.23039 -74.96081 4727 ft 170 kts 60°
2026-04-20 20:26 40.23623 -74.94735 4728 ft 170 kts 59°
2026-04-20 20:26 40.24210 -74.93387 4728 ft 170 kts 60°
2026-04-20 20:26 40.24597 -74.92494 4730 ft 170 kts 60°
2026-04-20 20:27 40.25394 -74.90705 4728 ft 170 kts 54°
2026-04-20 20:27 40.25910 -74.89934 4728 ft 170 kts 45°
2026-04-20 20:27 40.26734 -74.88826 4728 ft 170 kts 45°
2026-04-20 20:27 40.27803 -74.87330 4728 ft 170 kts 46°
2026-04-20 20:28 40.28345 -74.86568 4729 ft 170 kts 46°
2026-04-20 20:28 40.29413 -74.85070 4729 ft 170 kts 46°
2026-04-20 20:28 40.29947 -74.84322 4729 ft 170 kts 46°
2026-04-20 20:28 40.31024 -74.82807 4728 ft 170 kts 46°
2026-04-20 20:29 40.31558 -74.82058 4728 ft 170 kts 46°
2026-04-20 20:29 40.32363 -74.80928 4727 ft 170 kts 46°
2026-04-20 20:29 40.33169 -74.79798 4729 ft 170 kts 46°
2026-04-20 20:29 40.33976 -74.78661 4728 ft 170 kts 46°
2026-04-20 20:30 40.34783 -74.77527 4730 ft 170 kts 46°
2026-04-20 20:30 40.35591 -74.76395 4729 ft 170 kts 46°
2026-04-20 20:30 40.36397 -74.75253 4728 ft 170 kts 46°
2026-04-20 20:30 40.37203 -74.74121 4727 ft 170 kts 46°
2026-04-20 20:31 40.38010 -74.72986 4726 ft 170 kts 46°
2026-04-20 20:31 40.38814 -74.71855 4729 ft 170 kts 46°
2026-04-20 20:31 40.39608 -74.70735 4728 ft 170 kts 46°
2026-04-20 20:31 40.40412 -74.69601 4728 ft 170 kts 46°
2026-04-20 20:32 40.41216 -74.68466 4727 ft 170 kts 46°
2026-04-20 20:32 40.42022 -74.67329 4730 ft 170 kts 46°
2026-04-20 20:32 40.42748 -74.66104 4730 ft 170 kts 55°
2026-04-20 20:32 40.43427 -74.64832 4731 ft 170 kts 53°
2026-04-20 20:33 40.44120 -74.63574 4730 ft 170 kts 53°
2026-04-20 20:33 40.44806 -74.62311 4731 ft 170 kts 54°
2026-04-20 20:33 40.45491 -74.61047 4730 ft 170 kts 54°
2026-04-20 20:33 40.46176 -74.59783 4731 ft 170 kts 54°
2026-04-20 20:34 40.46852 -74.58535 4731 ft 170 kts 54°
2026-04-20 20:34 40.47540 -74.57264 4729 ft 170 kts 54°
2026-04-20 20:34 40.48226 -74.55996 4730 ft 170 kts 54°
2026-04-20 20:34 40.48912 -74.54728 4730 ft 170 kts 54°
2026-04-20 20:35 40.49598 -74.53460 4730 ft 170 kts 54°
2026-04-20 20:35 40.50285 -74.52189 4730 ft 170 kts 54°
2026-04-20 20:35 40.50971 -74.50920 4683 ft 173 kts 54°
2026-04-20 20:35 40.51676 -74.49616 4492 ft 177 kts 54°
2026-04-20 20:36 40.52380 -74.48310 4295 ft 178 kts 54°
2026-04-20 20:36 40.53097 -74.46980 4099 ft 179 kts 54°
2026-04-20 20:36 40.53816 -74.45649 3899 ft 179 kts 54°
2026-04-20 20:36 40.54537 -74.44313 3703 ft 179 kts 54°
2026-04-20 20:37 40.55267 -74.42986 3505 ft 179 kts 53°
2026-04-20 20:37 40.56003 -74.41665 3303 ft 179 kts 53°
2026-04-20 20:37 40.56733 -74.40348 3104 ft 179 kts 55°
2026-04-20 20:37 40.57324 -74.38908 2902 ft 179 kts 65°
2026-04-20 20:38 40.57808 -74.37423 2715 ft 179 kts 67°
2026-04-20 20:38 40.58183 -74.35870 2500 ft 179 kts 80°
2026-04-20 20:38 40.58330 -74.34248 2298 ft 178 kts 84°
2026-04-20 20:38 40.58468 -74.32630 2098 ft 178 kts 83°
2026-04-20 20:39 40.58611 -74.31021 1897 ft 175 kts 83°
2026-04-20 20:39 40.58746 -74.29484 1738 ft 162 kts 83°
2026-04-20 20:39 40.58905 -74.28081 1726 ft 150 kts 78°
2026-04-20 20:39 40.59110 -74.26768 1727 ft 144 kts 78°
2026-04-20 20:40 40.59309 -74.25488 1729 ft 141 kts 77°
2026-04-20 20:40 40.59578 -74.24254 1731 ft 139 kts 70°
2026-04-20 20:40 40.59888 -74.23132 1747 ft 128 kts 64°
2026-04-20 20:40 40.60549 -74.22450 1723 ft 124 kts 21°
2026-04-20 20:41 40.61322 -74.21926 1566 ft 123 kts 26°
2026-04-20 20:41 40.62074 -74.21429 1399 ft 119 kts 25°
2026-04-20 20:41 40.62809 -74.20955 1244 ft 112 kts 24°
2026-04-20 20:41 40.63476 -74.20534 1091 ft 102 kts 25°
2026-04-20 20:42 40.64097 -74.20129 937 ft 96 kts 25°
2026-04-20 20:42 40.64673 -74.19734 787 ft 92 kts 25°
2026-04-20 20:42 40.65219 -74.19399 682 ft 80 kts 22°
2026-04-20 20:42 40.65691 -74.19104 546 ft 72 kts 25°
2026-04-20 20:43 40.66179 -74.18803 490 ft 82 kts 21°
2026-04-20 20:43 40.66689 -74.18478 389 ft 79 kts 25°
2026-04-20 20:43 40.67167 -74.18176 264 ft 72 kts 24°
2026-04-20 20:43 40.67617 -74.17892 157 ft 73 kts 24°
2026-04-20 20:44 40.68050 -74.17617 46 ft 64 kts 23°
2026-04-20 20:44 40.68410 -74.17391 20 ft 54 kts 27°
2026-04-20 20:44 40.68640 -74.17256 22 ft 8 kts 349°
2026-04-20 20:44 40.68673 -74.17282 22 ft 7 kts 311°
2026-04-20 20:45 40.68682 -74.17366 24 ft 11 kts 233°
2026-04-20 20:45 40.68582 -74.17443 25 ft 23 kts 207°
2026-04-20 20:45 40.68416 -74.17567 21 ft 32 kts 200°
2026-04-20 20:45 40.68214 -74.17678 17 ft 24 kts 204°
2026-04-20 20:46 40.68105 -74.17747 17 ft 16 kts 207°
2026-04-20 20:46 40.67985 -74.17824 17 ft 22 kts 209°
2026-04-20 20:46 40.67851 -74.17921 20 ft 15 kts 235°
2026-04-20 20:46 40.67860 -74.18044 20 ft 14 kts 295°
2026-04-20 20:47 40.67892 -74.18127 20 ft 12 kts 309°
2026-04-20 20:47 40.67961 -74.18101 20 ft 17 kts 116°
2026-04-20 20:47 40.67947 -74.18063 21 ft 0 kts 115°